TimeEDT,TemperatureF,Dew PointF,Humidity,Sea Level PressureIn,VisibilityMPH,Wind Direction,Wind SpeedMPH,Gust SpeedMPH,PrecipitationIn,Events,Conditions,WindDirDegrees,DateUTC
12:15 AM,62.1,53.1,72,30.14,10.0,Calm,Calm,-,N/A,,Mostly Cloudy,0,2013-04-18 04:15:00
12:35 AM,62.2,54.1,75,30.13,10.0,Calm,Calm,-,N/A,,Mostly Cloudy,0,2013-04-18 04:35:00
12:55 AM,61.7,53.8,75,30.13,10.0,Calm,Calm,-,N/A,,Scattered Clouds,0,2013-04-18 04:55:00
1:15 AM,61.3,53.6,76,30.12,10.0,Calm,Calm,-,N/A,,Scattered Clouds,0,2013-04-18 05:15:00
1:35 AM,62.2,55.8,79,30.12,10.0,Calm,Calm,-,N/A,,Clear,0,2013-04-18 05:35:00
1:55 AM,62.6,55.6,78,30.12,10.0,Calm,Calm,-,N/A,,Scattered Clouds,0,2013-04-18 05:55:00
2:15 AM,63.0,57.2,81,30.12,10.0,Calm,Calm,-,N/A,,Overcast,0,2013-04-18 06:15:00
2:35 AM,63.0,56.8,80,30.12,10.0,Calm,Calm,-,N/A,,Overcast,0,2013-04-18 06:35:00
2:55 AM,62.8,57.0,81,30.12,10.0,Calm,Calm,-,N/A,,Mostly Cloudy,0,2013-04-18 06:55:00
3:15 AM,62.2,56.1,80,30.11,10.0,Calm,Calm,-,N/A,,Mostly Cloudy,0,2013-04-18 07:15:00
3:35 AM,62.2,55.6,79,30.12,10.0,Calm,Calm,-,N/A,,Scattered Clouds,0,2013-04-18 07:35:00
3:55 AM,62.1,55.8,80,30.12,10.0,Calm,Calm,-,N/A,,Scattered Clouds,0,2013-04-18 07:55:00
4:15 AM,62.6,56.1,79,30.12,10.0,Calm,Calm,-,N/A,,Scattered Clouds,0,2013-04-18 08:15:00
4:35 AM,62.4,55.6,78,30.12,10.0,Calm,Calm,-,N/A,,Clear,0,2013-04-18 08:35:00
4:55 AM,62.1,55.6,79,30.13,10.0,Calm,Calm,-,N/A,,Clear,0,2013-04-18 08:55:00
5:15 AM,62.1,56.3,81,30.13,10.0,Calm,Calm,-,N/A,,Scattered Clouds,0,2013-04-18 09:15:00
5:35 AM,62.2,56.7,82,30.13,10.0,SE,3.5,-,N/A,,Scattered Clouds,140,2013-04-18 09:35:00
5:55 AM,62.2,57.2,84,30.13,10.0,Calm,Calm,-,N/A,,Clear,0,2013-04-18 09:55:00
6:15 AM,62.2,57.2,84,30.14,7.0,SSE,3.5,-,N/A,,Mostly Cloudy,150,2013-04-18 10:15:00
6:35 AM,62.8,58.1,85,30.15,7.0,SE,3.5,-,N/A,,Overcast,140,2013-04-18 10:35:00
6:55 AM,63.5,59.4,86,30.15,7.0,SSE,4.6,-,N/A,,Overcast,150,2013-04-18 10:55:00
7:15 AM,63.7,59.9,87,30.15,7.0,SE,5.8,-,N/A,,Overcast,140,2013-04-18 11:15:00
7:35 AM,63.5,59.5,87,30.16,7.0,SSE,3.5,-,N/A,,Overcast,160,2013-04-18 11:35:00
7:55 AM,63.9,59.9,87,30.17,7.0,SSE,3.5,-,N/A,,Overcast,150,2013-04-18 11:55:00
8:15 AM,64.0,60.1,87,30.17,10.0,SSE,4.6,-,N/A,,Overcast,150,2013-04-18 12:15:00
8:35 AM,64.6,60.4,86,30.17,10.0,SSE,6.9,-,N/A,,Overcast,160,2013-04-18 12:35:00
8:55 AM,64.8,60.3,85,30.17,10.0,SSE,6.9,-,N/A,,Overcast,150,2013-04-18 12:55:00
9:15 AM,64.8,60.1,85,30.17,10.0,SSE,4.6,-,N/A,,Overcast,150,2013-04-18 13:15:00
9:35 AM,65.3,60.6,85,30.17,10.0,SSE,5.8,-,N/A,,Overcast,160,2013-04-18 13:35:00
9:55 AM,66.4,60.6,82,30.17,10.0,South,4.6,-,N/A,,Overcast,170,2013-04-18 13:55:00
10:15 AM,67.3,61.0,80,30.18,10.0,SSE,5.8,-,N/A,,Overcast,160,2013-04-18 14:15:00
10:35 AM,67.1,60.8,80,30.18,10.0,SSE,5.8,-,N/A,,Overcast,160,2013-04-18 14:35:00
10:55 AM,67.1,60.6,80,30.17,10.0,SSE,5.8,-,N/A,,Overcast,150,2013-04-18 14:55:00
11:15 AM,67.3,60.8,80,30.18,10.0,SSE,6.9,-,N/A,,Overcast,150,2013-04-18 15:15:00
11:35 AM,68.0,61.3,79,30.17,10.0,SE,4.6,-,N/A,,Overcast,140,2013-04-18 15:35:00
11:55 AM,69.8,62.1,76,30.16,10.0,SSE,4.6,-,N/A,,Overcast,150,2013-04-18 15:55:00
12:15 PM,72.1,62.6,72,30.16,10.0,South,4.6,-,N/A,,Overcast,180,2013-04-18 16:15:00
12:35 PM,73.2,61.0,65,30.15,10.0,SE,5.8,-,N/A,,Overcast,140,2013-04-18 16:35:00
12:55 PM,73.4,61.2,65,30.15,10.0,SSE,5.8,-,N/A,,Overcast,160,2013-04-18 16:55:00
1:15 PM,75.2,61.3,62,30.13,10.0,South,6.9,-,N/A,,Overcast,180,2013-04-18 17:15:00
1:35 PM,75.4,61.5,62,30.12,10.0,SSE,6.9,-,N/A,,Overcast,150,2013-04-18 17:35:00
1:55 PM,75.9,61.9,62,30.12,10.0,South,6.9,-,N/A,,Mostly Cloudy,170,2013-04-18 17:55:00
2:15 PM,78.3,62.2,58,30.12,10.0,South,10.4,16.1,N/A,,Mostly Cloudy,180,2013-04-18 18:15:00
2:35 PM,77.4,58.6,52,30.11,10.0,SSE,9.2,-,N/A,,Mostly Cloudy,160,2013-04-18 18:35:00
2:55 PM,76.5,57.6,52,30.10,10.0,SE,9.2,16.1,N/A,,Mostly Cloudy,140,2013-04-18 18:55:00
3:15 PM,78.3,58.1,50,30.09,10.0,South,9.2,19.6,N/A,,Mostly Cloudy,170,2013-04-18 19:15:00
3:35 PM,77.4,55.4,47,30.09,10.0,South,10.4,16.1,N/A,,Mostly Cloudy,170,2013-04-18 19:35:00
3:55 PM,76.8,54.9,46,30.08,10.0,SSE,10.4,18.4,N/A,,Mostly Cloudy,160,2013-04-18 19:55:00
4:15 PM,77.5,54.7,45,30.08,10.0,South,10.4,18.4,N/A,,Mostly Cloudy,170,2013-04-18 20:15:00
4:35 PM,77.9,53.6,43,30.07,10.0,SSE,6.9,16.1,N/A,,Mostly Cloudy,160,2013-04-18 20:35:00
4:55 PM,77.9,55.0,45,30.06,10.0,South,5.8,-,N/A,,Mostly Cloudy,190,2013-04-18 20:55:00
5:15 PM,77.7,55.4,46,30.05,10.0,SSE,10.4,19.6,N/A,,Overcast,150,2013-04-18 21:15:00
5:35 PM,77.5,55.2,46,30.04,10.0,SSE,6.9,16.1,N/A,,Scattered Clouds,160,2013-04-18 21:35:00
5:55 PM,77.4,56.8,49,30.04,10.0,SE,8.1,-,N/A,,Scattered Clouds,140,2013-04-18 21:55:00
6:15 PM,77.9,56.8,48,30.03,10.0,SSE,6.9,-,N/A,,Clear,150,2013-04-18 22:15:00
6:35 PM,77.4,56.3,48,30.03,10.0,South,6.9,-,N/A,,Clear,170,2013-04-18 22:35:00
6:55 PM,75.7,56.7,51,30.03,10.0,SSE,5.8,-,N/A,,Mostly Cloudy,150,2013-04-18 22:55:00
7:15 PM,74.7,57.0,54,30.02,10.0,SSE,6.9,-,N/A,,Overcast,150,2013-04-18 23:15:00
7:35 PM,73.8,56.8,55,30.02,10.0,SSE,4.6,-,N/A,,Overcast,150,2013-04-18 23:35:00
7:55 PM,73.4,56.7,56,30.02,10.0,SSE,4.6,-,N/A,,Overcast,150,2013-04-18 23:55:00
8:15 PM,72.9,57.2,58,30.02,10.0,SSE,4.6,-,N/A,,Overcast,160,2013-04-19 00:15:00
8:35 PM,72.5,57.2,59,30.02,10.0,SSE,3.5,-,N/A,,Overcast,150,2013-04-19 00:35:00
8:55 PM,72.5,57.4,59,30.01,10.0,SSE,4.6,-,N/A,,Overcast,160,2013-04-19 00:55:00
9:15 PM,72.3,58.1,61,30.02,10.0,SSE,9.2,-,N/A,,Overcast,160,2013-04-19 01:15:00
9:35 PM,71.8,58.1,62,30.02,10.0,SE,5.8,-,N/A,,Mostly Cloudy,140,2013-04-19 01:35:00
10:55 PM,70.7,59.0,66,30.01,10.0,SSE,6.9,-,N/A,,Overcast,150,2013-04-19 02:55:00
11:15 PM,70.7,59.0,66,30.00,10.0,SSE,9.2,17.3,N/A,,Overcast,150,2013-04-19 03:15:00
11:35 PM,70.0,58.8,68,30.00,10.0,SSE,13.8,18.4,N/A,,Overcast,150,2013-04-19 03:35:00
11:55 PM,69.8,59.0,68,29.99,10.0,SSE,12.7,20.7,N/A,,Overcast,160,2013-04-19 03:55:00